When you browse on this site, cookies collect data to enhance your experience and personalize the content and advertising you see.
Visit our Privacy Policy to learn more. By continuing to use the site, you agree to this use of cookies and data.
  • In United Kingdom
  • List of Countries
  • For 7 days
  • Water Temperature
  • Weather Map
  • Weather Widgets
  • user-avatar
    Login

    Hourly Weather Kerns

    Today, 18 January, Saturday

    Time Temperature Precipitation Wind Pressure Humidity
    00:00 +28°C° 0 mm 4 mps 751 mmHg 68%
    01:00 +27°C° 0 mm 4 mps 751 mmHg 69%
    02:00 +27°C° 0 mm 4 mps 750 mmHg 71%
    03:00 +27°C° 0 mm 4 mps 750 mmHg 73%
    04:00 +28°C° 0 mm 4 mps 750 mmHg 74%
    05:00 +28°C° 0 mm 4 mps 751 mmHg 75%
    06:00 +29°C° 0 mm 4 mps 751 mmHg 75%
    07:00 +29°C° 0 mm 4 mps 752 mmHg 75%
    08:00 +33°C° 0 mm 4 mps 752 mmHg 65%
    09:00 +35°C° 0 mm 4 mps 752 mmHg 54%
    10:00 +38°C° 0 mm 3 mps 753 mmHg 46%
    11:00 +39°C° 0 mm 3 mps 752 mmHg 39%
    12:00 +42°C° 0 mm 3 mps 751 mmHg 32%
    13:00 +43°C° 0 mm 3 mps 751 mmHg 24%
    14:00 +42°C° 0 mm 3 mps 750 mmHg 27%
    15:00 +42°C° 0 mm 3 mps 750 mmHg 31%
    16:00 +40°C° 0 mm 3 mps 750 mmHg 34%
    17:00 +37°C° 0.1 mm 3 mps 750 mmHg 47%
    18:00 +35°C° 0.1 mm 2 mps 750 mmHg 59%
    19:00 +31°C° 0.1 mm 2 mps 750 mmHg 72%
    20:00 +30°C° 0 mm 2 mps 751 mmHg 79%
    21:00 +30°C° 0 mm 2 mps 751 mmHg 87%
    22:00 +29°C° 0 mm 2 mps 752 mmHg 94%
    23:00 +29°C° 0.2 mm 2 mps 752 mmHg 94%

    Tomorrow, 19 January, Sunday

    Time Temperature Precipitation Wind Pressure Humidity
    00:00 +28°C° 0.2 mm 2 mps 752 mmHg 95%
    01:00 +28°C° 0.2 mm 2 mps 752 mmHg 96%
    02:00 +28°C° 0.2 mm 2 mps 752 mmHg 94%
    03:00 +28°C° 0.2 mm 2 mps 752 mmHg 92%
    04:00 +28°C° 0.2 mm 2 mps 752 mmHg 91%
    05:00 +28°C° 0 mm 2 mps 752 mmHg 88%
    06:00 +28°C° 0 mm 2 mps 753 mmHg 86%
    07:00 +29°C° 0 mm 2 mps 753 mmHg 83%
    08:00 +32°C° 0 mm 2 mps 754 mmHg 70%
    09:00 +36°C° 0 mm 2 mps 754 mmHg 58%
    10:00 +39°C° 0 mm 2 mps 754 mmHg 45%
    11:00 +40°C° 0 mm 2 mps 753 mmHg 41%
    12:00 +40°C° 0 mm 2 mps 753 mmHg 38%
    13:00 +42°C° 0 mm 3 mps 752 mmHg 34%
    14:00 +40°C° 0 mm 3 mps 752 mmHg 39%
    15:00 +39°C° 0 mm 2 mps 751 mmHg 44%
    16:00 +37°C° 0 mm 2 mps 751 mmHg 50%
    17:00 +35°C° 0.1 mm 2 mps 751 mmHg 59%
    18:00 +34°C° 0.1 mm 2 mps 752 mmHg 69%
    19:00 +31°C° 0.1 mm 1 mps 752 mmHg 79%
    20:00 +30°C° 0.1 mm 1 mps 753 mmHg 82%
    21:00 +30°C° 0.1 mm 1 mps 753 mmHg 84%
    22:00 +29°C° 0.1 mm 1 mps 754 mmHg 87%
    23:00 +29°C° 0 mm 1 mps 754 mmHg 88%

    Day after tomorrow, 20 January, Monday

    Time Temperature Precipitation Wind Pressure Humidity
    00:00 +28°C° 0 mm 1 mps 754 mmHg 88%
    01:00 +28°C° 0 mm 1 mps 753 mmHg 89%
    02:00 +28°C° 0 mm 1 mps 753 mmHg 88%
    03:00 +28°C° 0 mm 1 mps 753 mmHg 86%
    04:00 +28°C° 0 mm 1 mps 753 mmHg 85%
    05:00 +28°C° 0 mm 1 mps 754 mmHg 82%
    06:00 +28°C° 0 mm 1 mps 754 mmHg 80%
    07:00 +29°C° 0 mm 1 mps 755 mmHg 77%
    08:00 +32°C° 0 mm 1 mps 755 mmHg 66%
    09:00 +36°C° 0 mm 2 mps 755 mmHg 55%
    10:00 +39°C° 0 mm 2 mps 756 mmHg 45%
    11:00 +40°C° 0 mm 2 mps 755 mmHg 41%
    12:00 +41°C° 0 mm 2 mps 754 mmHg 38%
    13:00 +42°C° 0 mm 2 mps 754 mmHg 34%
    14:00 +40°C° 0.1 mm 2 mps 753 mmHg 43%
    15:00 +38°C° 0.1 mm 2 mps 753 mmHg 51%
    16:00 +35°C° 0.1 mm 2 mps 752 mmHg 60%
    17:00 +34°C° 0.2 mm 2 mps 753 mmHg 65%
    18:00 +32°C° 0.2 mm 2 mps 753 mmHg 71%
    19:00 +31°C° 0.2 mm 2 mps 754 mmHg 76%
    20:00 +30°C° 0.4 mm 2 mps 754 mmHg 80%
    21:00 +29°C° 0.4 mm 1 mps 755 mmHg 83%
    22:00 +29°C° 0.4 mm 1 mps 756 mmHg 86%
    23:00 +28°C° 0.4 mm 2 mps 756 mmHg 88%

    21 January, Tuesday

    Time Temperature Precipitation Wind Pressure Humidity
    00:00 +28°C° 0.4 mm 2 mps 755 mmHg 89%
    01:00 +28°C° 0.4 mm 2 mps 755 mmHg 90%
    02:00 +28°C° 0 mm 2 mps 755 mmHg 90%
    03:00 +28°C° 0 mm 2 mps 754 mmHg 89%
    04:00 +28°C° 0 mm 1 mps 754 mmHg 88%
    05:00 +28°C° 0 mm 1 mps 755 mmHg 86%
    06:00 +29°C° 0 mm 1 mps 755 mmHg 85%
    07:00 +29°C° 0 mm 1 mps 756 mmHg 83%
    08:00 +30°C° 0.2 mm 1 mps 756 mmHg 78%
    09:00 +32°C° 0.2 mm 1 mps 756 mmHg 74%
    10:00 +33°C° 0.2 mm 1 mps 757 mmHg 69%
    11:00 +35°C° 0 mm 1 mps 756 mmHg 60%
    12:00 +38°C° 0 mm 2 mps 755 mmHg 51%
    13:00 +40°C° 0 mm 2 mps 755 mmHg 42%
    14:00 +39°C° 0.3 mm 2 mps 754 mmHg 47%
    15:00 +38°C° 0.3 mm 2 mps 754 mmHg 52%
    16:00 +37°C° 0.3 mm 2 mps 753 mmHg 57%
    17:00 +35°C° 0.6 mm 2 mps 754 mmHg 66%
    18:00 +32°C° 0.6 mm 2 mps 754 mmHg 75%
    19:00 +30°C° 0.6 mm 2 mps 755 mmHg 84%
    20:00 +30°C° 0.5 mm 1 mps 755 mmHg 86%
    21:00 +29°C° 0.5 mm 1 mps 756 mmHg 89%
    22:00 +27°C° 0.5 mm 0 mps 756 mmHg 91%
    23:00 +27°C° 0.4 mm 0 mps 756 mmHg 92%

    22 January, Wednesday

    Time Temperature Precipitation Wind Pressure Humidity
    00:00 +28°C° 0.4 mm 1 mps 756 mmHg 93%
    01:00 +28°C° 0.4 mm 1 mps 756 mmHg 93%
    02:00 +28°C° 0.1 mm 1 mps 756 mmHg 94%
    03:00 +28°C° 0.1 mm 1 mps 755 mmHg 94%
    04:00 +28°C° 0.1 mm 2 mps 755 mmHg 94%
    05:00 +28°C° 1.7 mm 2 mps 756 mmHg 94%
    06:00 +28°C° 1.7 mm 2 mps 756 mmHg 94%
    07:00 +28°C° 1.7 mm 2 mps 757 mmHg 94%
    08:00 +30°C° 0.8 mm 2 mps 757 mmHg 85%
    09:00 +32°C° 0.8 mm 2 mps 757 mmHg 76%
    10:00 +35°C° 0.8 mm 1 mps 757 mmHg 67%
    11:00 +36°C° 0.5 mm 2 mps 757 mmHg 67%
    12:00 +36°C° 0.5 mm 3 mps 756 mmHg 66%
    13:00 +36°C° 0.5 mm 3 mps 756 mmHg 65%
    14:00 +35°C° 0.9 mm 3 mps 755 mmHg 69%
    15:00 +35°C° 0.9 mm 4 mps 755 mmHg 72%
    16:00 +34°C° 0.9 mm 4 mps 754 mmHg 75%
    17:00 +33°C° 0.9 mm 4 mps 755 mmHg 81%
    18:00 +31°C° 0.9 mm 3 mps 755 mmHg 87%
    19:00 +29°C° 0.9 mm 3 mps 755 mmHg 93%
    20:00 +29°C° 0.3 mm 3 mps 756 mmHg 94%
    21:00 +29°C° 0.3 mm 2 mps 756 mmHg 96%
    22:00 +28°C° 0.3 mm 2 mps 757 mmHg 98%
    23:00 +28°C° 0.5 mm 2 mps 757 mmHg 98%

    23 January, Thursday

    Time Temperature Precipitation Wind Pressure Humidity
    00:00 +28°C° 0.5 mm 1 mps 757 mmHg 98%
    01:00 +28°C° 0.5 mm 1 mps 756 mmHg 98%
    02:00 +28°C° 0.1 mm 1 mps 756 mmHg 98%
    03:00 +27°C° 0.1 mm 1 mps 756 mmHg 98%
    04:00 +27°C° 0.1 mm 1 mps 756 mmHg 98%
    05:00 +27°C° 0 mm 1 mps 756 mmHg 97%
    06:00 +28°C° 0 mm 1 mps 757 mmHg 96%
    07:00 +28°C° 0 mm 1 mps 757 mmHg 95%
    08:00 +29°C° 0.1 mm 2 mps 757 mmHg 87%
    09:00 +31°C° 0.1 mm 2 mps 757 mmHg 78%
    10:00 +34°C° 0.1 mm 2 mps 757 mmHg 69%
    11:00 +34°C° 0.1 mm 3 mps 757 mmHg 66%
    12:00 +35°C° 0.1 mm 3 mps 756 mmHg 64%
    13:00 +36°C° 0.1 mm 3 mps 756 mmHg 61%
    14:00 +35°C° 0 mm 3 mps 755 mmHg 62%
    15:00 +35°C° 0 mm 3 mps 755 mmHg 63%
    16:00 +35°C° 0 mm 3 mps 755 mmHg 64%
    17:00 +33°C° 0 mm 3 mps 755 mmHg 71%
    18:00 +30°C° 0 mm 3 mps 755 mmHg 79%
    19:00 +29°C° 0 mm 3 mps 756 mmHg 87%
    20:00 +28°C° 0 mm 3 mps 756 mmHg 90%
    21:00 +28°C° 0 mm 2 mps 757 mmHg 93%
    22:00 +27°C° 0 mm 2 mps 757 mmHg 96%
    23:00 +27°C° 0 mm 2 mps 757 mmHg 96%
    Show more